TimeEST,TemperatureF,Dew PointF,Humidity,Sea Level PressureIn,VisibilityMPH,Wind Direction,Wind SpeedMPH,Gust SpeedMPH,PrecipitationIn,Events,Conditions,WindDirDegrees,DateUTC
12:14 AM,42.8,33.8,70,29.58,10.0,SW,20.7,26.5,N/A,,Clear,230,2013-01-20 05:14:00
12:34 AM,42.8,33.8,70,29.57,10.0,WSW,16.1,23.0,N/A,,Clear,240,2013-01-20 05:34:00
12:54 AM,42.8,33.8,70,29.57,10.0,SW,18.4,27.6,N/A,,Scattered Clouds,230,2013-01-20 05:54:00
1:14 AM,42.8,33.8,70,29.57,10.0,WSW,17.3,23.0,N/A,,Scattered Clouds,240,2013-01-20 06:14:00
1:35 AM,42.8,33.8,70,29.57,10.0,WSW,17.3,27.6,N/A,,Mostly Cloudy,240,2013-01-20 06:35:00
1:54 AM,42.8,30.2,61,29.58,10.0,WSW,20.7,32.2,N/A,,Overcast,250,2013-01-20 06:54:00
2:14 AM,42.8,23.0,46,29.59,10.0,West,20.7,28.8,N/A,,Overcast,270,2013-01-20 07:14:00
2:34 AM,42.8,21.2,42,29.61,10.0,West,23.0,35.7,N/A,,Overcast,270,2013-01-20 07:34:00
2:54 AM,42.8,21.2,42,29.63,10.0,WNW,21.9,40.3,N/A,,Overcast,290,2013-01-20 07:54:00
3:14 AM,39.2,15.8,39,29.66,10.0,West,19.6,46.0,N/A,,Mostly Cloudy,270,2013-01-20 08:14:00
3:34 AM,35.6,17.6,48,29.70,10.0,WNW,27.6,41.4,N/A,,Scattered Clouds,290,2013-01-20 08:34:00
3:54 AM,32.0,17.6,55,29.73,10.0,WNW,33.4,43.7,N/A,,Clear,290,2013-01-20 08:54:00
4:14 AM,30.2,15.8,55,29.76,10.0,West,28.8,41.4,N/A,,Scattered Clouds,280,2013-01-20 09:14:00
4:34 AM,28.4,12.2,51,29.79,10.0,WNW,24.2,42.6,N/A,,Mostly Cloudy,290,2013-01-20 09:34:00
4:54 AM,26.6,10.4,51,29.81,10.0,WNW,27.6,42.6,N/A,,Mostly Cloudy,290,2013-01-20 09:54:00
5:14 AM,26.6,8.6,47,29.83,10.0,WNW,26.5,38.0,N/A,,Mostly Cloudy,290,2013-01-20 10:14:00
5:34 AM,24.8,10.4,54,29.84,10.0,WNW,25.3,34.5,N/A,,Overcast,300,2013-01-20 10:34:00
5:54 AM,24.8,8.6,50,29.86,10.0,WNW,23.0,35.7,N/A,,Overcast,290,2013-01-20 10:54:00
6:14 AM,23.0,8.6,54,29.88,10.0,West,23.0,33.4,N/A,,Overcast,280,2013-01-20 11:14:00
6:34 AM,21.2,6.8,54,29.91,10.0,West,26.5,39.1,N/A,,Mostly Cloudy,280,2013-01-20 11:34:00
6:54 AM,21.2,6.8,54,29.93,10.0,West,23.0,34.5,N/A,,Mostly Cloudy,280,2013-01-20 11:54:00
7:14 AM,21.2,6.8,54,29.95,10.0,West,19.6,33.4,N/A,,Overcast,280,2013-01-20 12:14:00
7:34 AM,21.2,6.8,54,29.97,10.0,WNW,17.3,26.5,N/A,,Overcast,290,2013-01-20 12:34:00
7:54 AM,21.2,6.8,54,29.98,10.0,WNW,16.1,27.6,N/A,,Overcast,290,2013-01-20 12:54:00
8:14 AM,19.4,3.2,49,30.00,10.0,West,23.0,33.4,N/A,,Mostly Cloudy,280,2013-01-20 13:14:00
8:34 AM,21.2,3.2,46,30.03,10.0,WNW,18.4,27.6,N/A,,Mostly Cloudy,290,2013-01-20 13:34:00
8:54 AM,19.4,6.8,58,30.05,10.0,WNW,20.7,33.4,N/A,,Overcast,290,2013-01-20 13:54:00
9:14 AM,19.4,3.2,49,30.06,10.0,West,19.6,26.5,N/A,,Mostly Cloudy,280,2013-01-20 14:14:00
9:34 AM,19.4,3.2,49,30.07,10.0,WNW,18.4,31.1,N/A,,Mostly Cloudy,300,2013-01-20 14:34:00
9:54 AM,19.4,1.4,46,30.08,10.0,WNW,17.3,32.2,N/A,,Clear,300,2013-01-20 14:54:00
10:15 AM,19.4,1.4,46,30.09,10.0,WNW,20.7,27.6,N/A,,Clear,290,2013-01-20 15:15:00
10:34 AM,21.2,1.4,42,30.10,10.0,WNW,16.1,27.6,N/A,,Clear,300,2013-01-20 15:34:00
10:54 AM,21.2,1.4,42,30.11,10.0,WNW,18.4,25.3,N/A,,Clear,300,2013-01-20 15:54:00
11:15 AM,23.0,1.4,39,30.12,10.0,West,15.0,20.7,N/A,,Clear,280,2013-01-20 16:15:00
11:34 AM,23.0,1.4,39,30.12,10.0,WNW,15.0,20.7,N/A,,Clear,300,2013-01-20 16:34:00
11:54 AM,24.8,1.4,36,30.11,10.0,WNW,11.5,19.6,N/A,,Clear,300,2013-01-20 16:54:00
12:14 PM,24.8,1.4,36,30.13,10.0,West,11.5,-,N/A,,Clear,270,2013-01-20 17:14:00
12:34 PM,24.8,3.2,40,30.13,10.0,West,11.5,21.9,N/A,,Scattered Clouds,280,2013-01-20 17:34:00
12:54 PM,24.8,3.2,40,30.12,10.0,West,8.1,-,N/A,,Scattered Clouds,270,2013-01-20 17:54:00
1:14 PM,24.8,3.2,40,30.13,10.0,West,12.7,19.6,N/A,,Scattered Clouds,280,2013-01-20 18:14:00
1:34 PM,24.8,3.2,40,30.11,10.0,West,10.4,-,N/A,,Mostly Cloudy,280,2013-01-20 18:34:00
1:54 PM,26.6,3.2,37,30.09,10.0,WNW,10.4,16.1,N/A,,Scattered Clouds,300,2013-01-20 18:54:00
2:14 PM,24.8,3.2,40,30.09,10.0,WNW,11.5,-,N/A,,Scattered Clouds,290,2013-01-20 19:14:00
2:34 PM,24.8,3.2,40,30.11,10.0,West,15.0,23.0,N/A,,Scattered Clouds,280,2013-01-20 19:34:00
2:54 PM,24.8,5.0,43,30.12,10.0,WNW,15.0,24.2,N/A,,Scattered Clouds,290,2013-01-20 19:54:00
3:14 PM,24.8,6.8,46,30.12,10.0,West,12.7,21.9,N/A,,Mostly Cloudy,270,2013-01-20 20:14:00
3:34 PM,24.8,6.8,46,30.12,10.0,WNW,13.8,-,N/A,,Overcast,290,2013-01-20 20:34:00
3:55 PM,24.8,6.8,46,30.13,10.0,WNW,12.7,20.7,N/A,,Mostly Cloudy,290,2013-01-20 20:55:00
4:14 PM,23.0,5.0,46,30.13,10.0,West,13.8,18.4,N/A,,Mostly Cloudy,270,2013-01-20 21:14:00
4:34 PM,23.0,5.0,46,30.14,10.0,West,12.7,17.3,N/A,,Mostly Cloudy,280,2013-01-20 21:34:00
4:55 PM,21.2,5.0,50,30.13,10.0,West,15.0,18.4,N/A,,Overcast,260,2013-01-20 21:55:00
5:14 PM,21.2,5.0,50,30.14,10.0,West,12.7,-,N/A,,Overcast,270,2013-01-20 22:14:00
5:34 PM,21.2,6.8,54,30.15,10.0,WNW,15.0,18.4,N/A,,Overcast,300,2013-01-20 22:34:00
5:54 PM,21.2,6.8,54,30.15,10.0,WNW,10.4,16.1,N/A,,Overcast,290,2013-01-20 22:54:00
6:14 PM,21.2,6.8,54,30.15,10.0,West,5.8,-,N/A,,Overcast,280,2013-01-20 23:14:00
6:34 PM,21.2,5.0,50,30.15,10.0,WNW,12.7,18.4,N/A,,Mostly Cloudy,290,2013-01-20 23:34:00
6:54 PM,21.2,5.0,50,30.16,10.0,West,11.5,16.1,N/A,,Mostly Cloudy,270,2013-01-20 23:54:00
7:14 PM,21.2,6.8,54,30.16,10.0,West,9.2,-,N/A,,Overcast,280,2013-01-21 00:14:00
7:34 PM,21.2,6.8,54,30.16,10.0,West,15.0,19.6,N/A,,Overcast,280,2013-01-21 00:34:00
7:54 PM,19.4,5.0,54,30.16,10.0,West,11.5,-,N/A,,Overcast,280,2013-01-21 00:54:00
8:14 PM,19.4,5.0,54,30.16,10.0,WNW,10.4,-,N/A,,Overcast,290,2013-01-21 01:14:00
8:34 PM,19.4,5.0,54,30.16,10.0,WNW,10.4,-,N/A,,Overcast,300,2013-01-21 01:34:00
8:54 PM,19.4,5.0,54,30.16,10.0,WNW,8.1,-,N/A,,Overcast,290,2013-01-21 01:54:00
9:14 PM,19.4,5.0,54,30.15,10.0,WNW,8.1,-,N/A,,Overcast,300,2013-01-21 02:14:00
9:34 PM,19.4,5.0,54,30.16,10.0,WNW,11.5,-,N/A,,Overcast,290,2013-01-21 02:34:00
9:54 PM,19.4,5.0,54,30.16,10.0,West,13.8,18.4,N/A,,Overcast,280,2013-01-21 02:54:00
10:15 PM,19.4,3.2,49,30.16,10.0,WNW,10.4,18.4,N/A,,Overcast,290,2013-01-21 03:15:00
10:34 PM,19.4,3.2,49,30.15,10.0,WNW,10.4,18.4,N/A,,Overcast,290,2013-01-21 03:34:00
10:54 PM,19.4,3.2,49,30.15,10.0,WNW,9.2,-,N/A,,Overcast,300,2013-01-21 03:54:00
11:15 PM,19.4,3.2,49,30.15,10.0,NW,6.9,10.4,N/A,,Overcast,310,2013-01-21 04:15:00
11:34 PM,19.4,5.0,54,30.14,10.0,NW,6.9,-,N/A,,Overcast,310,2013-01-21 04:34:00
11:54 PM,19.4,5.0,54,30.14,10.0,NW,12.7,-,N/A,,Overcast,320,2013-01-21 04:54:00